#timestamp,LO_Frequency,Hit,StdDev 
1683082815.7,286047001.3,N
1683082835.6,286047002.0,N
1683082855.4,286047002.7,N
1683082875.2,286047002.8,N
1683082895.1,286046999.9,N
1683082896.0,286046999.9,N
1683082915.8,286046999.7,N
1683082935.6,286047002.1,N
1683082955.5,286047000.0,N
1683082975.3,286047002.7,N
1683082995.2,286047002.6,N
1683083015.9,286047001.4,N
1683083035.7,286047001.7,N
1683083055.6,286047001.6,N
1683083075.4,286047001.9,N
1683083095.2,286047003.8,Y
1683083115.1,286047001.6,P
1683083116.0,286047001.6,P
1683083135.8,286046999.7,N
1683083155.7,286047000.3,N
1683083175.5,286047002.4,N
1683083195.3,286047000.3,N
1683083215.2,286047002.4,N
1683083235.0,286047000.2,N
1683083235.9,286047000.2,N
1683083255.8,286047000.1,N
1683083275.6,286047001.0,N
1683083295.4,286046998.9,N
1683083315.3,286046996.6,Y
1683083335.1,286046996.8,P
1683083355.8,286046995.6,N
1683083375.7,286046993.3,P
1683083395.5,286046996.4,N
1683083415.4,286046993.8,N
1683083435.2,286046994.1,N
1683083455.0,286046993.9,N
1683083455.9,286046993.9,N
1683083475.8,286046995.9,N
1683083495.6,286046995.4,N
1683083515.4,286046994.7,N
1683083535.3,286046991.8,Y
1683083555.1,286046999.4,P
1683083575.9,286046997.7,N
1683083595.7,286046997.5,N
1683083615.5,286046996.0,N
1683083635.4,286046995.8,Y
1683083655.2,286046999.3,P
1683083675.0,286046996.5,P
1683083676.0,286046996.5,N
1683083695.8,286046998.3,N
1683083715.6,286046998.6,N
1683083735.5,286046998.7,N
1683083755.3,286046996.5,Y
1683083775.1,286047000.0,P
1683083795.9,286047001.1,N
1683083815.7,286047000.3,N
1683083835.6,286047001.1,N
1683083855.4,286047000.2,N
1683083875.2,286047002.7,N
1683083895.1,286047002.8,N
1683083896.0,286047002.8,N
1683083915.8,286047001.0,N
1683083935.6,286047000.0,N
1683083955.5,286047004.3,Y
1683083975.3,286047002.6,P
1683083995.2,286047004.2,P
1683084015.9,286047001.7,N
1683084035.7,286047000.3,N
1683084055.6,286046999.7,N
1683084075.4,286047002.4,N
1683084095.2,286047000.0,N
1683084115.1,286047002.5,N
1683084116.0,286047002.5,N
1683084135.8,286047001.6,N
1683084155.7,286047004.2,Y
1683084175.5,286047001.6,P
1683084195.3,286047002.0,P
1683084215.2,286047001.4,P
1683084235.0,286047004.4,Y
1683084235.9,286047004.4,P
1683084255.8,286047002.5,N
1683084275.6,286047002.4,N
1683084295.4,286047003.8,Y
1683084315.3,286046999.9,P
1683084335.1,286046999.0,N
1683084355.8,286046996.6,N
1683084375.7,286046997.3,N
1683084395.5,286046996.6,N
1683084415.4,286046996.5,N
1683084435.2,286046998.2,N
1683084455.0,286047000.0,N
1683084455.9,286047000.0,N
1683084475.8,286046998.2,N
1683084495.6,286047000.4,N
1683084515.4,286047000.0,N
1683084535.3,286047000.8,N
1683084555.1,286047000.6,N
1683084575.9,286047000.0,N
1683084595.7,286047002.4,N
1683084615.5,286047001.2,N
1683084635.4,286046999.1,N
1683084655.2,286046999.2,N
1683084675.0,286046999.2,N
1683084675.9,286046999.2,N
1683084695.8,286046999.1,N
1683084715.6,286046997.4,N
1683084735.5,286046997.8,N
1683084755.3,286046996.8,N
1683084775.1,286046997.1,N
1683084795.9,286046999.0,N
1683084815.7,286046998.5,N
1683084835.5,286046998.3,N
1683084855.4,286046998.9,N
1683084875.2,286046998.3,N
1683084895.0,286046999.5,N
1683084896.0,286046999.5,N
1683084915.8,286046998.4,N
1683084935.6,286047000.5,N
1683084955.5,286046998.2,N
1683084975.3,286046998.3,N
1683084995.1,286046996.9,N
1683085015.9,286046997.9,N
1683085035.7,286046996.8,N
1683085055.5,286046996.7,N
1683085075.4,286046999.2,N
1683085095.2,286046998.8,N
1683085115.1,286046998.9,N
1683085116.0,286046998.9,N
1683085135.8,286046998.1,N
1683085155.6,286047001.2,N
1683085175.5,286046999.0,N
1683085195.3,286046999.6,N
1683085215.1,286046997.0,N
1683085235.9,286046999.5,N
1683085255.7,286046999.9,N
1683085275.6,286047000.2,N
1683085295.4,286047000.9,N
1683085315.2,286047000.5,N
1683085335.1,286047000.8,N
1683085336.0,286047000.8,N
1683085355.8,286047000.9,N
1683085375.7,286047000.8,N
1683085395.5,286046998.7,N
1683085415.3,286047000.7,N
1683085435.2,286047001.0,N
1683085455.0,286046999.7,N
1683085455.9,286046999.7,N
1683085475.7,286047000.9,N
1683085495.6,286047000.8,N
1683085515.4,286047000.4,N
1683085535.3,286046998.5,N
1683085555.1,286046998.9,N
1683085556.0,286046998.9,N
1683085575.8,286046996.7,N
1683085595.7,286046999.6,N
1683085615.5,286046999.3,N
1683085635.4,286046999.1,N
1683085655.2,286046998.4,N
1683085675.0,286046999.1,N
1683085675.9,286046999.1,N
1683085695.8,286046999.4,N
1683085715.6,286046998.8,N
1683085735.4,286047000.6,N
1683085755.3,286047000.3,N
1683085775.1,286047002.7,N
1683085795.9,286047000.0,N
1683085815.7,286046999.8,N
1683085835.5,286047002.6,N
1683085855.4,286047002.6,N
1683085875.2,286047001.6,N
1683085895.1,286047004.4,Y
1683085896.0,286047004.4,P
1683085915.8,286047003.9,N
1683085935.6,286047002.2,N
1683085955.5,286047001.8,N
1683085975.3,286047001.7,N
1683085995.1,286047000.3,N
1683086015.9,286047001.2,N
1683086035.7,286046999.1,N
1683086055.6,286047000.8,N
1683086075.4,286047002.0,N
1683086095.2,286047002.0,N
1683086115.1,286047002.8,N
1683086116.0,286047002.8,N
1683086135.8,286046999.7,N
1683086155.6,286047000.1,N
1683086175.5,286047001.9,N
1683086195.3,286047003.8,N
1683086215.2,286047001.5,N
1683086235.9,286047002.1,N
1683086255.7,286047001.6,N
1683086275.6,286047002.1,N
1683086295.4,286047002.4,N
1683086315.2,286047002.1,N
1683086335.1,286047001.3,N
1683086336.0,286047001.3,N
1683086355.8,286047002.8,N
1683086375.7,286047002.7,N
1683086395.5,286046999.9,N
